Location: Unspecified
(29.9680°N, 0.0000°E)
Time: 18:31:28
(UTC+00:00)

A-11 Canister half - Pass Details

Date: 26 June 2019
Orbit: 1526 x 1683 km, 47.3° (Epoch: 15 July)

Event Time Altitude Azimuth Distance (km) Brightness Sun altitude
Rises 11:44:13 0° 299° (WNW) 4,677 11.5 82.2°
Reaches altitude 10° 11:47:40 10° 290° (WNW) 3,699 11.1 82.6°
Maximum altitude 11:55:28 31° 232° (SW) 2,451 10.7 83.2°
Drops below altitude 10° 12:03:26 10° 174° (S) 3,762 11.3 83.4°
Sets 12:07:01 0° 165° (SSE) 4,768 11.7 83.3°
